Погода в Обервилье

Франция     48°54′51″N   2°22′53″E
темп.,
°C
ветер,
м/с
пор.,
м/с
влажн.,
%
обл.,
%
осадки,
мм/ч
давл.,
гПа
погр.,
м
19 сентября, вс
вс1923:00+20в2562100 0.1 1013263
02:00+19всв1163100 0.1 1012220
05:00+17всв2371100 0.2 1011173
08:00+16с1273100 0.2 1011144
11:00+19сз2261100 0.0 1013487
14:00+22с3351100 0.0 10131066
17:00+22с2350100 0.0 10131345
20:00+17зсз5984100 0.9 1015529
20 сентября, пн
пн2023:00+15зсз4889100 0.3 1016421
02:00+14сз3790100 0.6 1017387
05:00+14зсз3692100 0.3 1017379
08:00+14сз2592100 0.4 1018356
11:00+15ссз2391100 0.3 1019341
14:00+17ссз2381100 0.5 1019587
17:00+20ссз346775 1.4 1020812
20:00+16ссв4979100 3.6 1021355
21 сентября, вт
вт2123:00+14с410805 0.0 1024334
02:00+12с38790 0.0 1025235
05:00+11с310832 0.0 1025266
08:00+10ссв41182100 0.0 1027318
11:00+15ссв585835 0.0 1028602
14:00+19ссв56435 0.0 10281153
17:00+19ссв56425 0.0 10271291
20:00+15ссв375987 0.0 1028540
22 сентября, ср
ср2223:00+13св39685 0.0 1028321
02:00+11св387259 0.0 1028221
05:00+10св257387 0.0 1027141
08:00+10св2572100 0.0 1027140
11:00+15св35535 0.0 1027485
14:00+19св343930 0.0 10251021
17:00+21св34368 0.0 10241210
20:00+17св255213 0.0 1024162
23 сентября, чт
чт2323:00+15св23605 0.0 102391
02:00+13ссв22690 0.0 102366
05:00+12с22755 0.0 102363
08:00+11с22780 0.0 102266
11:00+16ссз23552 0.0 1022405
14:00+21сз223857 0.0 1021964
17:00+22сз343199 0.0 10191222
20:00+18зсз1253100 0.0 101923